Location: Rancho Del Sol Observatory
(38.7214°N, 120.6350°W)
Time: 00:18:29
(UTC-07:00)

Cosmos 2221 Rocket - Visible Passes

Search period start: 30 May 2017 00:00
Search period end: 09 June 2017 00:00
Orbit: 622 x 647 km, 82.5° (Epoch: 29 May)

Date Brightness Start Highest point End Pass type
(mag) Time Alt. Az. Time Alt. Az. Time Alt. Az.
30 May 4.3 04:42:03 10° N 04:46:34 60° E 04:51:00 10° SSE visible
31 May 6.7 03:28:46 10° NE 03:30:08 11° ENE 03:31:29 10° E visible
31 May 3.7 05:04:16 10° NNW 05:08:46 62° W 05:13:11 10° S visible
01 Jun 6.0 03:49:04 10° NNE 03:52:41 23° ENE 03:56:15 10° SE visible
02 Jun 4.6 04:10:41 10° N 04:15:05 47° E 04:19:24 10° SSE visible
03 Jun 3.6 04:32:46 10° N 04:37:19 79° W 04:41:48 10° S visible
04 Jun 6.2 03:17:56 10° NNE 03:21:08 19° ENE 03:24:18 10° ESE visible
04 Jun 4.3 04:55:18 10° NNW 04:59:26 35° W 05:03:30 10° SSW visible
05 Jun 5.0 03:39:21 10° N 03:43:34 38° ENE 03:47:44 10° SSE visible
06 Jun 3.6 04:01:19 10° N 04:05:52 83° E 04:10:20 10° S visible
07 Jun 6.3 02:46:56 10° NE 02:49:35 15° ENE 02:52:12 10° ESE visible
07 Jun 4.0 04:23:43 10° NNW 04:28:00 44° W 04:32:01 11° SSW visible
08 Jun 5.3 03:08:03 10° NNE 03:12:03 30° ENE 03:16:00 10° SE visible
08 Jun 5.0 04:46:39 10° NW 04:50:01 21° W 04:53:21 10° SW visible
